Location: Bratsk-Energetik
(56.3300°N, 101.7600°E)
Time: 22:12:51
(UTC+08:00)

ISS - Pass Details

Date: 29 May 2017
Orbit: 402 x 409 km, 51.6° (Epoch: 25 May)

Event Time Altitude Azimuth Distance (km) Brightness Sun altitude
Rises 23:45:55 0° 261° (W) 2,333 0.2 -9.9°
Reaches altitude 10° 23:48:06 10° 252° (WSW) 1,471 -1.0 -10.0°
Maximum altitude 23:51:08 35° 185° (S) 678 -3.2 -10.2°
Drops below altitude 10° 23:54:10 10° 118° (ESE) 1,466 -1.4 -10.3°
Enters shadow 23:54:39 - 115° (ESE) 1,646 -1.1 -10.3°
